Time,TemperatureF,DewpointF,PressureIn,WindDirection,WindDirectionDegrees,WindSpeedMPH,WindSpeedGustMPH,Humidity,HourlyPrecipIn,Conditions,Clouds,dailyrainin,SoftwareType,DateUTC
2013-11-04 08:54:00,54.2,37.4,29.93,ESE,109,2.0,0.0,53,0.00,,,0.00,WeatherTracker,2013-11-04 15:54:00,
2013-11-04 08:56:00,54.2,37.4,29.93,ESE,109,1.0,3.0,53,0.00,,,0.00,WeatherTracker,2013-11-04 15:56:00,
2013-11-04 08:57:00,54.0,37.3,29.93,ESE,109,0.0,3.0,53,0.00,,,0.00,WeatherTracker,2013-11-04 15:57:00,
2013-11-04 09:02:00,53.9,37.6,29.93,East,101,2.0,4.0,54,0.00,,,0.00,WeatherTracker,2013-11-04 16:02:00,
2013-11-04 09:07:00,54.2,37.9,29.93,ESE,109,0.0,4.0,54,0.00,,,0.00,WeatherTracker,2013-11-04 16:07:00,
2013-11-04 09:12:00,55.1,37.8,29.93,East,80,1.0,3.0,52,0.00,,,0.00,WeatherTracker,2013-11-04 16:12:00,
2013-11-04 09:17:00,55.1,36.8,29.93,ESE,121,2.0,5.0,50,0.00,,,0.00,WeatherTracker,2013-11-04 16:17:00,
2013-11-04 09:22:00,55.4,37.6,29.93,NNE,28,1.0,5.0,51,0.00,,,0.00,WeatherTracker,2013-11-04 16:22:00,
2013-11-04 09:27:00,55.9,37.5,29.93,ESE,103,1.0,6.0,50,0.00,,,0.00,WeatherTracker,2013-11-04 16:27:00,
2013-11-04 09:32:00,56.1,37.2,29.93,NE,38,0.0,6.0,49,0.00,,,0.00,WeatherTracker,2013-11-04 16:32:00,
2013-11-04 09:37:00,57.4,37.3,29.93,NNE,28,0.0,5.0,47,0.00,,,0.00,WeatherTracker,2013-11-04 16:37:00,
2013-11-04 09:42:00,57.7,37.1,29.93,North,355,2.0,3.0,46,0.00,,,0.00,WeatherTracker,2013-11-04 16:42:00,
2013-11-04 09:47:00,58.4,37.1,29.92,ESE,117,0.0,4.0,45,0.00,,,0.00,WeatherTracker,2013-11-04 16:47:00,
2013-11-04 09:52:00,58.2,37.0,29.92,ENE,78,1.0,4.0,45,0.00,,,0.00,WeatherTracker,2013-11-04 16:52:00,
2013-11-04 09:57:00,58.1,36.9,29.92,ESE,103,2.0,3.0,45,0.00,,,0.00,WeatherTracker,2013-11-04 16:57:00,
2013-11-04 10:02:00,58.6,36.2,29.92,ESE,104,1.0,3.0,43,0.00,,,0.00,WeatherTracker,2013-11-04 17:02:00,
2013-11-04 10:07:00,59.0,36.5,29.91,North,360,2.0,5.0,43,0.00,,,0.00,WeatherTracker,2013-11-04 17:07:00,
2013-11-04 10:12:00,59.2,36.1,29.91,ESE,113,0.0,5.0,42,0.00,,,0.00,WeatherTracker,2013-11-04 17:12:00,
2013-11-04 10:17:00,58.9,35.9,29.91,North,360,0.0,4.0,42,0.00,,,0.00,WeatherTracker,2013-11-04 17:17:00,
2013-11-04 10:22:00,59.4,35.7,29.91,SE,144,1.0,4.0,41,0.00,,,0.00,WeatherTracker,2013-11-04 17:22:00,
2013-11-04 10:27:00,59.8,35.4,29.91,South,171,2.0,5.0,40,0.00,,,0.00,WeatherTracker,2013-11-04 17:27:00,
2013-11-04 10:33:00,60.5,36.1,29.91,SE,138,0.0,5.0,40,0.00,,,0.00,WeatherTracker,2013-11-04 17:33:00,
2013-11-04 10:38:00,60.3,35.9,29.91,NNE,28,3.0,5.0,40,0.00,,,0.00,WeatherTracker,2013-11-04 17:38:00,
2013-11-04 10:43:00,62.0,36.1,29.90,NNW,339,2.0,5.0,38,0.00,,,0.00,WeatherTracker,2013-11-04 17:43:00,
2013-11-04 10:48:00,61.7,35.8,29.90,ENE,65,1.0,4.0,38,0.00,,,0.00,WeatherTracker,2013-11-04 17:48:00,
2013-11-04 10:53:00,60.8,36.3,29.90,NNE,31,0.0,6.0,40,0.00,,,0.00,WeatherTracker,2013-11-04 17:53:00,
2013-11-04 10:58:00,61.4,36.2,29.89,North,5,2.0,6.0,39,0.00,,,0.00,WeatherTracker,2013-11-04 17:58:00,
2013-11-04 11:03:00,61.7,35.2,29.89,ENE,61,0.0,6.0,37,0.00,,,0.00,WeatherTracker,2013-11-04 18:03:00,
2013-11-04 11:08:00,62.5,35.9,29.89,North,355,3.0,5.0,37,0.00,,,0.00,WeatherTracker,2013-11-04 18:08:00,
2013-11-04 11:13:00,62.6,36.0,29.89,NNE,22,1.0,6.0,37,0.00,,,0.00,WeatherTracker,2013-11-04 18:13:00,
2013-11-04 11:18:00,62.9,35.5,29.89,NE,40,2.0,6.0,36,0.00,,,0.00,WeatherTracker,2013-11-04 18:18:00,
2013-11-04 11:23:00,62.7,35.4,29.88,North,5,3.0,7.0,36,0.00,,,0.00,WeatherTracker,2013-11-04 18:23:00,
2013-11-04 11:28:00,62.7,35.4,29.88,ESE,107,2.0,7.0,36,0.00,,,0.00,WeatherTracker,2013-11-04 18:28:00,
2013-11-04 11:33:00,62.9,35.5,29.88,North,5,0.0,8.0,36,0.00,,,0.00,WeatherTracker,2013-11-04 18:33:00,
2013-11-04 11:38:00,63.6,35.4,29.87,North,349,0.0,8.0,35,0.00,,,0.00,WeatherTracker,2013-11-04 18:38:00,
2013-11-04 11:43:00,64.4,36.1,29.87,NE,41,1.0,8.0,35,0.00,,,0.00,WeatherTracker,2013-11-04 18:43:00,
2013-11-04 11:48:00,63.6,35.4,29.86,NE,42,4.0,8.0,35,0.00,,,0.00,WeatherTracker,2013-11-04 18:48:00,
2013-11-04 11:53:00,64.0,35.8,29.86,East,94,3.0,9.0,35,0.00,,,0.00,WeatherTracker,2013-11-04 18:53:00,
2013-11-04 11:58:00,63.9,35.7,29.86,NNW,348,1.0,9.0,35,0.00,,,0.00,WeatherTracker,2013-11-04 18:58:00,
2013-11-04 12:03:00,64.3,36.1,29.85,NNE,33,5.0,6.0,35,0.00,,,0.00,WeatherTracker,2013-11-04 19:03:00,
2013-11-04 12:09:00,64.2,35.2,29.84,North,5,5.0,7.0,34,0.00,,,0.00,WeatherTracker,2013-11-04 19:09:00,
2013-11-04 12:14:00,64.1,35.9,29.84,North,5,1.0,8.0,35,0.00,,,0.00,WeatherTracker,2013-11-04 19:14:00,
2013-11-04 12:19:00,64.8,35.0,29.84,NNE,30,0.0,9.0,33,0.00,,,0.00,WeatherTracker,2013-11-04 19:19:00,
2013-11-04 12:24:00,65.2,35.4,29.83,ESE,117,7.0,9.0,33,0.00,,,0.00,WeatherTracker,2013-11-04 19:24:00,
2013-11-04 12:29:00,65.0,35.2,29.83,ENE,57,3.0,9.0,33,0.00,,,0.00,WeatherTracker,2013-11-04 19:29:00,
2013-11-04 12:34:00,64.7,35.7,29.83,ENE,74,2.0,10.0,34,0.00,,,0.00,WeatherTracker,2013-11-04 19:34:00,
2013-11-04 12:39:00,65.0,35.2,29.83,North,360,4.0,10.0,33,0.00,,,0.00,WeatherTracker,2013-11-04 19:39:00,
2013-11-04 12:44:00,65.2,35.4,29.82,ENE,77,5.0,8.0,33,0.00,,,0.00,WeatherTracker,2013-11-04 19:44:00,
2013-11-04 12:49:00,65.4,35.5,29.82,NNW,329,2.0,8.0,33,0.00,,,0.00,WeatherTracker,2013-11-04 19:49:00,
2013-11-04 12:54:00,66.4,35.6,29.82,East,84,2.0,8.0,32,0.00,,,0.00,WeatherTracker,2013-11-04 19:54:00,
2013-11-04 12:59:00,65.6,35.7,29.82,NW,325,2.0,9.0,33,0.00,,,0.00,WeatherTracker,2013-11-04 19:59:00,
2013-11-04 13:04:00,66.0,35.3,29.81,North,351,3.0,9.0,32,0.00,,,0.00,WeatherTracker,2013-11-04 20:04:00,
2013-11-04 13:09:00,66.1,35.4,29.81,ESE,110,1.0,8.0,32,0.00,,,0.00,WeatherTracker,2013-11-04 20:09:00,
2013-11-04 13:14:00,66.4,35.6,29.81,ESE,115,3.0,8.0,32,0.00,,,0.00,WeatherTracker,2013-11-04 20:14:00,
2013-11-04 13:19:00,66.1,35.4,29.81,ENE,69,2.0,9.0,32,0.00,,,0.00,WeatherTracker,2013-11-04 20:19:00,
2013-11-04 13:24:00,66.8,36.0,29.80,NNE,31,5.0,9.0,32,0.00,,,0.00,WeatherTracker,2013-11-04 20:24:00,
2013-11-04 13:29:00,67.1,36.3,29.80,North,350,5.0,10.0,32,0.00,,,0.00,WeatherTracker,2013-11-04 20:29:00,
2013-11-04 13:34:00,67.0,36.2,29.80,NNE,28,3.0,10.0,32,0.00,,,0.00,WeatherTracker,2013-11-04 20:34:00,
2013-11-04 13:39:00,66.6,35.8,29.80,ENE,59,2.0,9.0,32,0.00,,,0.00,WeatherTracker,2013-11-04 20:39:00,
2013-11-04 13:44:00,66.2,34.7,29.79,NNE,26,2.0,9.0,31,0.00,,,0.00,WeatherTracker,2013-11-04 20:44:00,
2013-11-04 13:49:00,66.3,35.6,29.79,NNW,341,8.0,8.0,32,0.00,,,0.00,WeatherTracker,2013-11-04 20:49:00,
2013-11-04 13:54:00,66.4,34.8,29.79,North,5,5.0,13.0,31,0.00,,,0.00,WeatherTracker,2013-11-04 20:54:00,
2013-11-04 13:59:00,66.7,35.1,29.79,East,98,5.0,13.0,31,0.00,,,0.00,WeatherTracker,2013-11-04 20:59:00,
2013-11-04 14:04:00,66.8,34.4,29.79,West,259,3.0,9.0,30,0.00,,,0.00,WeatherTracker,2013-11-04 21:04:00,
2013-11-04 14:09:00,66.8,35.2,29.79,NNW,346,9.0,10.0,31,0.00,,,0.00,WeatherTracker,2013-11-04 21:09:00,
2013-11-04 14:15:00,66.8,34.4,29.78,NE,52,1.0,10.0,30,0.00,,,0.00,WeatherTracker,2013-11-04 21:15:00,
2013-11-04 14:20:00,67.1,34.6,29.78,East,92,5.0,9.0,30,0.00,,,0.00,WeatherTracker,2013-11-04 21:20:00,
2013-11-04 14:25:00,67.2,35.5,29.78,East,94,6.0,11.0,31,0.00,,,0.00,WeatherTracker,2013-11-04 21:25:00,
2013-11-04 14:30:00,66.8,35.2,29.78,NW,322,6.0,11.0,31,0.00,,,0.00,WeatherTracker,2013-11-04 21:30:00,
2013-11-04 14:35:00,67.4,35.7,29.77,North,355,4.0,9.0,31,0.00,,,0.00,WeatherTracker,2013-11-04 21:35:00,
2013-11-04 14:40:00,67.2,35.5,29.78,North,360,7.0,12.0,31,0.00,,,0.00,WeatherTracker,2013-11-04 21:40:00,
2013-11-04 14:45:00,67.3,35.6,29.77,East,90,7.0,12.0,31,0.00,,,0.00,WeatherTracker,2013-11-04 21:45:00,
2013-11-04 14:50:00,67.2,36.3,29.78,NNE,13,5.0,8.0,32,0.00,,,0.00,WeatherTracker,2013-11-04 21:50:00,
2013-11-04 14:55:00,67.1,36.3,29.77,ENE,66,3.0,8.0,32,0.00,,,0.00,WeatherTracker,2013-11-04 21:55:00,
2013-11-04 15:00:00,68.1,36.3,29.77,East,101,5.0,8.0,31,0.00,,,0.00,WeatherTracker,2013-11-04 22:00:00,
2013-11-04 15:05:00,67.7,36.0,29.77,NNW,342,1.0,8.0,31,0.00,,,0.00,WeatherTracker,2013-11-04 22:05:00,
2013-11-04 15:10:00,67.4,36.5,29.77,North,11,5.0,9.0,32,0.00,,,0.00,WeatherTracker,2013-11-04 22:10:00,
2013-11-04 15:15:00,67.6,36.7,29.77,ESE,123,1.0,9.0,32,0.00,,,0.00,WeatherTracker,2013-11-04 22:15:00,
2013-11-04 15:20:00,67.8,36.9,29.76,NE,46,4.0,9.0,32,0.00,,,0.00,WeatherTracker,2013-11-04 22:20:00,
2013-11-04 15:25:00,67.5,36.6,29.76,ENE,77,1.0,7.0,32,0.00,,,0.00,WeatherTracker,2013-11-04 22:25:00,
2013-11-04 15:30:00,68.0,37.0,29.76,NNE,15,5.0,7.0,32,0.00,,,0.00,WeatherTracker,2013-11-04 22:30:00,
2013-11-04 15:35:00,68.2,37.2,29.76,NNE,13,3.0,9.0,32,0.00,,,0.00,WeatherTracker,2013-11-04 22:35:00,
2013-11-04 15:40:00,68.1,36.3,29.76,East,92,1.0,10.0,31,0.00,,,0.00,WeatherTracker,2013-11-04 22:40:00,
2013-11-04 15:46:00,67.9,36.9,29.76,East,92,2.0,10.0,32,0.00,,,0.00,WeatherTracker,2013-11-04 22:46:00,
2013-11-04 15:51:00,68.0,37.0,29.75,SSW,192,2.0,9.0,32,0.00,,,0.00,WeatherTracker,2013-11-04 22:51:00,
2013-11-04 15:56:00,67.8,36.9,29.75,ESE,102,5.0,7.0,32,0.00,,,0.00,WeatherTracker,2013-11-04 22:56:00,
2013-11-04 16:01:00,67.6,37.5,29.75,North,355,6.0,9.0,33,0.00,,,0.00,WeatherTracker,2013-11-04 23:01:00,
2013-11-04 16:06:00,67.3,37.2,29.75,NE,51,4.0,10.0,33,0.00,,,0.00,WeatherTracker,2013-11-04 23:06:00,
2013-11-04 16:11:00,67.2,37.1,29.75,NNW,340,5.0,10.0,33,0.00,,,0.00,WeatherTracker,2013-11-04 23:11:00,
2013-11-04 16:16:00,67.0,36.9,29.75,NNW,339,5.0,8.0,33,0.00,,,0.00,WeatherTracker,2013-11-04 23:16:00,
2013-11-04 16:21:00,66.8,36.8,29.75,East,93,7.0,9.0,33,0.00,,,0.00,WeatherTracker,2013-11-04 23:21:00,
2013-11-04 16:26:00,66.7,38.2,29.75,East,89,5.0,10.0,35,0.00,,,0.00,WeatherTracker,2013-11-04 23:26:00,
2013-11-04 16:31:00,66.3,37.8,29.75,North,350,5.0,10.0,35,0.00,,,0.00,WeatherTracker,2013-11-04 23:31:00,
2013-11-04 16:36:00,66.0,38.3,29.75,North,11,7.0,10.0,36,0.00,,,0.00,WeatherTracker,2013-11-04 23:36:00,
2013-11-04 16:41:00,65.7,38.0,29.75,North,350,9.0,10.0,36,0.00,,,0.00,WeatherTracker,2013-11-04 23:41:00,
2013-11-04 16:46:00,65.7,38.0,29.75,East,93,6.0,10.0,36,0.00,,,0.00,WeatherTracker,2013-11-04 23:46:00,
2013-11-04 16:51:00,65.6,37.9,29.74,NNE,20,2.0,10.0,36,0.00,,,0.00,WeatherTracker,2013-11-04 23:51:00,
2013-11-04 16:56:00,65.4,38.4,29.75,North,355,6.0,10.0,37,0.00,,,0.00,WeatherTracker,2013-11-04 23:56:00,
2013-11-04 17:01:00,65.3,38.4,29.75,ENE,58,2.0,10.0,37,0.00,,,0.00,WeatherTracker,2013-11-05 00:01:00,
2013-11-04 17:06:00,65.2,38.3,29.75,North,5,3.0,10.0,37,0.00,,,0.00,WeatherTracker,2013-11-05 00:06:00,
2013-11-04 17:11:00,64.9,38.7,29.74,NE,42,3.0,14.0,38,0.00,,,0.00,WeatherTracker,2013-11-05 00:11:00,
2013-11-04 17:16:00,64.6,39.1,29.75,NNW,346,2.0,14.0,39,0.00,,,0.00,WeatherTracker,2013-11-05 00:16:00,
2013-11-04 17:22:00,64.4,38.9,29.75,NNW,338,3.0,14.0,39,0.00,,,0.00,WeatherTracker,2013-11-05 00:22:00,
2013-11-04 17:27:00,64.1,39.3,29.75,ENE,71,0.0,11.0,40,0.00,,,0.00,WeatherTracker,2013-11-05 00:27:00,
2013-11-04 17:31:00,63.9,39.1,29.75,East,97,1.0,9.0,40,0.00,,,0.00,WeatherTracker,2013-11-05 00:31:00,
2013-11-04 17:37:00,63.8,39.6,29.75,North,5,6.0,9.0,41,0.00,,,0.00,WeatherTracker,2013-11-05 00:37:00,
2013-11-04 17:42:00,63.6,39.5,29.75,ENE,66,7.0,10.0,41,0.00,,,0.00,WeatherTracker,2013-11-05 00:42:00,
2013-11-04 17:47:00,63.6,39.5,29.75,ENE,72,4.0,12.0,41,0.00,,,0.00,WeatherTracker,2013-11-05 00:47:00,
2013-11-04 17:52:00,63.5,39.4,29.75,NW,306,5.0,12.0,41,0.00,,,0.00,WeatherTracker,2013-11-05 00:52:00,
2013-11-04 17:57:00,63.3,39.2,29.75,NNE,13,4.0,10.0,41,0.00,,,0.00,WeatherTracker,2013-11-05 00:57:00,
2013-11-04 18:02:00,63.0,38.9,29.75,NNE,12,9.0,10.0,41,0.00,,,0.00,WeatherTracker,2013-11-05 01:02:00,
2013-11-04 18:07:00,62.7,39.3,29.75,North,360,4.0,10.0,42,0.00,,,0.00,WeatherTracker,2013-11-05 01:07:00,
2013-11-04 18:12:00,62.4,39.0,29.75,ENE,68,3.0,10.0,42,0.00,,,0.00,WeatherTracker,2013-11-05 01:12:00,
2013-11-04 18:17:00,62.1,39.3,29.75,NE,36,10.0,11.0,43,0.00,,,0.00,WeatherTracker,2013-11-05 01:17:00,
2013-11-04 18:22:00,62.0,39.2,29.76,NNE,15,4.0,11.0,43,0.00,,,0.00,WeatherTracker,2013-11-05 01:22:00,
2013-11-04 18:27:00,61.8,39.1,29.76,NNE,13,2.0,10.0,43,0.00,,,0.00,WeatherTracker,2013-11-05 01:27:00,
2013-11-04 18:32:00,61.5,38.8,29.77,NNE,28,2.0,8.0,43,0.00,,,0.00,WeatherTracker,2013-11-05 01:32:00,
2013-11-04 18:37:00,61.4,39.3,29.76,NNE,21,4.0,11.0,44,0.00,,,0.00,WeatherTracker,2013-11-05 01:37:00,
2013-11-04 18:42:00,61.3,39.8,29.77,WSW,250,4.0,11.0,45,0.00,,,0.00,WeatherTracker,2013-11-05 01:42:00,
2013-11-04 18:47:00,61.1,40.2,29.77,NNW,344,6.0,11.0,46,0.00,,,0.00,WeatherTracker,2013-11-05 01:47:00,
2013-11-04 18:52:00,61.5,40.5,29.77,NNW,329,3.0,12.0,46,0.00,,,0.00,WeatherTracker,2013-11-05 01:52:00,
2013-11-04 18:57:00,61.7,40.1,29.77,NE,39,10.0,12.0,45,0.00,,,0.00,WeatherTracker,2013-11-05 01:57:00,
2013-11-04 19:02:00,61.7,40.1,29.77,NNE,19,5.0,12.0,45,0.00,,,0.00,WeatherTracker,2013-11-05 02:02:00,
2013-11-04 19:07:00,61.4,39.9,29.77,ENE,77,2.0,11.0,45,0.00,,,0.00,WeatherTracker,2013-11-05 02:07:00,
2013-11-04 19:12:00,61.2,40.3,29.77,NNW,348,6.0,12.0,46,0.00,,,0.00,WeatherTracker,2013-11-05 02:12:00,
2013-11-04 19:18:00,61.2,40.3,29.78,ENE,65,10.0,12.0,46,0.00,,,0.00,WeatherTracker,2013-11-05 02:18:00,
2013-11-04 19:23:00,61.2,40.8,29.78,NNE,20,5.0,12.0,47,0.00,,,0.00,WeatherTracker,2013-11-05 02:23:00,
2013-11-04 19:28:00,61.1,40.7,29.78,North,355,7.0,13.0,47,0.00,,,0.00,WeatherTracker,2013-11-05 02:28:00,
2013-11-04 19:33:00,61.3,40.9,29.78,North,11,6.0,14.0,47,0.00,,,0.00,WeatherTracker,2013-11-05 02:33:00,
2013-11-04 19:38:00,61.2,41.9,29.78,NNW,344,6.0,14.0,49,0.00,,,0.00,WeatherTracker,2013-11-05 02:38:00,
2013-11-04 19:43:00,60.9,42.1,29.78,North,5,7.0,14.0,50,0.00,,,0.00,WeatherTracker,2013-11-05 02:43:00,
2013-11-04 19:48:00,60.7,42.5,29.78,NE,56,4.0,12.0,51,0.00,,,0.00,WeatherTracker,2013-11-05 02:48:00,
2013-11-04 19:53:00,60.7,41.9,29.78,NE,56,5.0,12.0,50,0.00,,,0.00,WeatherTracker,2013-11-05 02:53:00,
2013-11-04 19:58:00,60.8,42.0,29.78,North,5,3.0,11.0,50,0.00,,,0.00,WeatherTracker,2013-11-05 02:58:00,
2013-11-04 20:03:00,60.6,41.9,29.78,North,10,4.0,9.0,50,0.00,,,0.00,WeatherTracker,2013-11-05 03:03:00,
2013-11-04 20:08:00,60.4,42.2,29.78,NNE,33,4.0,11.0,51,0.00,,,0.00,WeatherTracker,2013-11-05 03:08:00,
2013-11-04 20:13:00,60.2,42.5,29.78,ENE,71,3.0,11.0,52,0.00,,,0.00,WeatherTracker,2013-11-05 03:13:00,
2013-11-04 20:18:00,59.9,42.2,29.78,NNE,12,3.0,7.0,52,0.00,,,0.00,WeatherTracker,2013-11-05 03:18:00,
2013-11-04 20:23:00,59.8,42.6,29.79,North,5,3.0,7.0,53,0.00,,,0.00,WeatherTracker,2013-11-05 03:23:00,
2013-11-04 20:28:00,59.7,42.5,29.78,ENE,62,4.0,7.0,53,0.00,,,0.00,WeatherTracker,2013-11-05 03:28:00,
2013-11-04 20:33:00,59.7,42.5,29.78,NNE,13,1.0,9.0,53,0.00,,,0.00,WeatherTracker,2013-11-05 03:33:00,
2013-11-04 20:38:00,59.6,42.4,29.78,NNW,342,2.0,9.0,53,0.00,,,0.00,WeatherTracker,2013-11-05 03:38:00,
2013-11-04 20:44:00,59.5,42.4,29.78,East,83,1.0,7.0,53,0.00,,,0.00,WeatherTracker,2013-11-05 03:44:00,
2013-11-04 20:49:00,59.5,42.8,29.79,NE,34,0.0,8.0,54,0.00,,,0.00,WeatherTracker,2013-11-05 03:49:00,
2013-11-04 20:54:00,59.5,42.8,29.79,East,80,3.0,8.0,54,0.00,,,0.00,WeatherTracker,2013-11-05 03:54:00,
2013-11-04 20:59:00,59.5,42.8,29.79,ESE,109,3.0,8.0,54,0.00,,,0.00,WeatherTracker,2013-11-05 03:59:00,
2013-11-04 21:04:00,59.5,42.8,29.79,NE,41,4.0,9.0,54,0.00,,,0.00,WeatherTracker,2013-11-05 04:04:00,
2013-11-04 21:09:00,59.1,42.9,29.79,ESE,117,8.0,9.0,55,0.00,,,0.00,WeatherTracker,2013-11-05 04:09:00,
2013-11-04 21:14:00,58.9,42.8,29.79,East,93,1.0,9.0,55,0.00,,,0.00,WeatherTracker,2013-11-05 04:14:00,
2013-11-04 21:19:00,58.5,42.9,29.79,ESE,108,5.0,9.0,56,0.00,,,0.00,WeatherTracker,2013-11-05 04:19:00,
2013-11-04 21:24:00,58.4,42.8,29.79,ESE,106,1.0,7.0,56,0.00,,,0.00,WeatherTracker,2013-11-05 04:24:00,
2013-11-04 21:29:00,58.3,43.1,29.79,East,88,5.0,8.0,57,0.00,,,0.00,WeatherTracker,2013-11-05 04:29:00,
2013-11-04 21:34:00,58.1,43.4,29.78,ENE,71,2.0,8.0,58,0.00,,,0.00,WeatherTracker,2013-11-05 04:34:00,
2013-11-04 21:39:00,57.7,43.5,29.78,West,269,4.0,7.0,59,0.00,,,0.00,WeatherTracker,2013-11-05 04:39:00,
2013-11-04 21:44:00,57.5,43.3,29.78,SSE,157,4.0,8.0,59,0.00,,,0.00,WeatherTracker,2013-11-05 04:44:00,
2013-11-04 21:49:00,57.4,43.2,29.78,North,355,5.0,8.0,59,0.00,,,0.00,WeatherTracker,2013-11-05 04:49:00,
2013-11-04 21:54:00,57.3,43.5,29.78,North,5,8.0,11.0,60,0.00,,,0.00,WeatherTracker,2013-11-05 04:54:00,
2013-11-04 22:00:00,57.1,43.3,29.78,North,9,5.0,11.0,60,0.00,,,0.00,WeatherTracker,2013-11-05 05:00:00,
2013-11-04 22:01:00,57.1,43.3,29.77,NNW,333,4.0,11.0,60,0.00,,,0.00,WeatherTracker,2013-11-05 05:01:00,
2013-11-04 22:02:00,57.0,43.3,29.77,ENE,59,1.0,11.0,60,0.00,,,0.00,WeatherTracker,2013-11-05 05:02:00,
2013-11-04 22:07:00,56.9,42.3,29.77,NNE,19,2.0,9.0,58,0.00,,,0.00,WeatherTracker,2013-11-05 05:07:00,
2013-11-04 22:12:00,57.0,41.5,29.77,NNE,17,5.0,9.0,56,0.00,,,0.00,WeatherTracker,2013-11-05 05:12:00,
2013-11-04 22:17:00,56.9,40.9,29.77,North,9,1.0,6.0,55,0.00,,,0.00,WeatherTracker,2013-11-05 05:17:00,
2013-11-04 22:22:00,56.8,40.3,29.77,North,360,1.0,6.0,54,0.00,,,0.00,WeatherTracker,2013-11-05 05:22:00,
2013-11-04 22:27:00,56.8,40.3,29.77,East,88,3.0,5.0,54,0.00,,,0.00,WeatherTracker,2013-11-05 05:27:00,
2013-11-04 22:32:00,56.7,40.2,29.77,East,96,1.0,6.0,54,0.00,,,0.00,WeatherTracker,2013-11-05 05:32:00,
2013-11-04 22:37:00,56.4,40.4,29.77,East,80,1.0,6.0,55,0.00,,,0.00,WeatherTracker,2013-11-05 05:37:00,
2013-11-04 22:42:00,56.2,40.7,29.77,East,80,0.0,5.0,56,0.00,,,0.00,WeatherTracker,2013-11-05 05:42:00,
2013-11-04 22:47:00,56.0,40.5,29.77,ENE,72,0.0,3.0,56,0.00,,,0.00,WeatherTracker,2013-11-05 05:47:00,
2013-11-04 22:53:00,55.7,40.2,29.77,ENE,72,0.0,3.0,56,0.00,,,0.00,WeatherTracker,2013-11-05 05:53:00,
2013-11-04 22:58:00,55.7,40.2,29.77,NE,55,0.0,2.0,56,0.00,,,0.00,WeatherTracker,2013-11-05 05:58:00,
2013-11-04 23:03:00,55.8,40.3,29.77,NNE,15,0.0,4.0,56,0.00,,,0.00,WeatherTracker,2013-11-05 06:03:00,
2013-11-04 23:08:00,56.2,40.2,29.77,ENE,57,2.0,6.0,55,0.00,,,0.00,WeatherTracker,2013-11-05 06:08:00,
2013-11-04 23:13:00,56.7,40.7,29.77,North,5,1.0,6.0,55,0.00,,,0.00,WeatherTracker,2013-11-05 06:13:00,
2013-11-04 23:18:00,57.0,41.0,29.77,ENE,57,1.0,5.0,55,0.00,,,0.00,WeatherTracker,2013-11-05 06:18:00,
2013-11-04 23:23:00,57.0,41.0,29.77,ENE,68,0.0,3.0,55,0.00,,,0.00,WeatherTracker,2013-11-05 06:23:00,
2013-11-04 23:28:00,56.9,40.9,29.77,SSE,149,0.0,3.0,55,0.00,,,0.00,WeatherTracker,2013-11-05 06:28:00,
2013-11-04 23:33:00,56.7,41.6,29.77,East,83,6.0,7.0,57,0.00,,,0.00,WeatherTracker,2013-11-05 06:33:00,
2013-11-04 23:38:00,57.0,43.7,29.76,ENE,75,8.0,13.0,61,0.00,,,0.00,WeatherTracker,2013-11-05 06:38:00,
2013-11-04 23:43:00,57.0,44.1,29.76,East,90,3.0,13.0,62,0.00,,,0.00,WeatherTracker,2013-11-05 06:43:00,
2013-11-04 23:48:00,56.9,44.4,29.77,ESE,103,2.0,9.0,63,0.00,,,0.00,WeatherTracker,2013-11-05 06:48:00,
2013-11-04 23:53:00,56.8,44.8,29.77,NE,42,0.0,9.0,64,0.00,,,0.00,WeatherTracker,2013-11-05 06:53:00,
2013-11-04 23:58:00,56.6,45.0,29.77,NE,51,4.0,8.0,65,0.00,,,0.00,WeatherTracker,2013-11-05 06:58:00,